CW8553 Weather Reports


Display with metric or nautical units.
time (UTC)temp
F
wind
direction
speed
MPH
gust
MPH
rain 1hr
in
rain 24hr
in
rain mn
in
humidity
%
barometer
mb
20260906183107 66 15 1.0 7.0 0.00 0.00 0.00 63 1015.9
20260906181551 66 9 1.0 3.0 0.00 0.00 0.00 69 1015.8
20260906174544 63 278 0.0 4.0 0.00 0.00 0.00 76 1016.1
20260906173042 63 0 0.0 2.0 0.00 0.00 0.00 75 1016.4
20260906171546 61 292 0.0 2.0 0.00 0.00 0.00 78 1016.5
20260906170045 61 0 0.0 3.0 0.00 0.00 0.00 77 1016.5
20260906164544 62 0 0.0 3.0 0.00 0.00 0.00 74 1016.6
20260906163042 61 82 0.0 3.0 0.00 0.00 0.00 76 1016.6
20260906161549 61 93 1.0 4.0 0.00 0.00 0.00 77 1016.6
20260906160045 60 46 1.0 4.0 0.00 0.00 0.00 81 1016.4
20260906154545 59 12 1.0 2.0 0.00 0.00 0.00 82 1016.2
20260906153046 57 9 1.0 4.0 0.00 0.00 0.00 86 1016.1
20260906151546 56 11 0.0 3.0 0.00 0.00 0.00 89 1016.3
20260906150052 54 0 0.0 1.0 0.00 0.00 0.00 91 1016.0
20260906144545 53 0 0.0 1.0 0.00 0.00 0.00 91 1016.0
20260906143050 52 0 0.0 0.0 0.00 0.00 0.00 91 1016.2
20260906141549 52 0 0.0 0.0 0.00 0.00 0.00 91 1016.1
20260906140044 52 0 0.0 1.0 0.00 0.00 0.00 91 1016.1
20260906134548 52 0 0.0 1.0 0.00 0.00 0.00 90 1016.0
20260906133048 53 0 0.0 2.0 0.00 0.00 0.00 90 1015.8
20260906131546 53 92 0.0 1.0 0.00 0.00 0.00 90 1015.8
20260906130051 53 0 0.0 2.0 0.00 0.00 0.00 91 1015.9
20260906124550 54 0 0.0 2.0 0.00 0.00 0.00 91 1016.0
20260906123047 54 0 0.0 0.0 0.00 0.00 0.00 91 1016.1
20260906121545 54 0 0.0 0.0 0.00 0.00 0.00 90 1015.9
20260906120044 54 0 0.0 1.0 0.00 0.00 0.00 90 1016.0
20260906114554 54 0 0.0 0.0 0.00 0.00 0.00 89 1015.9
20260906113055 54 0 0.0 1.0 0.00 0.00 0.00 88 1016.2
20260906111545 54 0 0.0 1.0 0.00 0.00 0.00 87 1016.1
20260906110044 55 0 0.0 1.0 0.00 0.00 0.00 87 1016.2
20260906104541 55 0 0.0 1.0 0.00 0.00 0.00 88 1016.0
20260906103048 55 0 0.0 1.0 0.00 0.00 0.00 87 1015.9
20260906101544 54 0 0.0 0.0 0.00 0.00 0.00 87 1016.0
20260906100042 54 0 0.0 1.0 0.00 0.00 0.00 87 1016.0
20260906094547 54 0 0.0 3.0 0.00 0.00 0.00 87 1016.1
20260906093046 54 0 0.0 1.0 0.00 0.00 0.00 85 1016.0
20260906091546 54 0 0.0 0.0 0.00 0.00 0.00 85 1016.1
20260906090045 54 0 0.0 1.0 0.00 0.00 0.00 84 1016.1
20260906084542 54 0 0.0 1.0 0.00 0.00 0.00 84 1016.1
20260906083048 54 0 0.0 0.0 0.00 0.00 0.00 84 1016.0
20260906081551 54 0 0.0 0.0 0.00 0.00 0.00 84 1016.2
20260906080044 54 0 0.0 0.0 0.00 0.00 0.00 84 1016.2
20260906074557 55 0 0.0 0.0 0.00 0.00 0.00 83 1016.2
20260906073047 55 0 0.0 0.0 0.00 0.00 0.00 82 1016.3
20260906071545 55 0 0.0 0.0 0.00 0.00 0.00 81 1016.4
20260906070046 56 0 0.0 0.0 0.00 0.00 0.00 81 1016.4
20260906064541 56 0 0.0 0.0 0.00 0.00 0.00 80 1016.5
20260906063048 56 0 0.0 1.0 0.00 0.00 0.00 80 1016.4
20260906061545 56 0 0.0 0.0 0.00 0.00 0.00 80 1016.4
20260906060045 56 0 0.0 0.0 0.00 0.00 0.00 78 1016.4
20260906054548 57 0 0.0 0.0 0.00 0.00 0.00 78 1016.6
20260906053048 58 0 0.0 0.0 0.00 0.00 0.00 75 1016.6
20260906051559 58 0 0.0 0.0 0.00 0.00 0.00 74 1016.6
20260906050052 58 0 0.0 1.0 0.00 0.00 0.00 74 1016.8
20260906044551 58 0 0.0 1.0 0.00 0.00 0.00 74 1016.6
20260906043045 59 0 0.0 0.0 0.00 0.00 0.00 73 1016.7
20260906041546 59 0 0.0 0.0 0.00 0.00 0.00 72 1016.8
20260906040047 59 0 0.0 0.0 0.00 0.00 0.00 71 1016.9
20260906034547 60 0 0.0 0.0 0.00 0.00 0.00 72 1016.7
20260906033051 61 0 0.0 0.0 0.00 0.00 0.00 70 1016.6
20260906031555 62 0 0.0 0.0 0.00 0.00 0.00 69 1016.5
20260906030049 62 0 0.0 0.0 0.00 0.00 0.00 68 1016.5
20260906024546 63 0 0.0 0.0 0.00 0.00 0.00 67 1016.3
20260906023044 65 0 0.0 0.0 0.00 0.00 0.00 66 1016.3
20260906021545 66 0 0.0 0.0 0.00 0.00 0.00 63 1016.3
20260906020051 67 0 0.0 0.0 0.00 0.00 0.00 61 1016.4
20260906014543 67 0 0.0 0.0 0.00 0.00 0.00 60 1016.3
20260906013049 68 0 0.0 1.0 0.00 0.00 0.00 57 1016.3
20260906011550 68 0 0.0 2.0 0.00 0.00 0.00 56 1016.2
20260906010047 69 0 0.0 3.0 0.00 0.00 0.00 55 1016.3
20260906004544 69 0 0.0 2.0 0.00 0.00 0.00 53 1016.2
20260906003043 69 0 0.0 4.0 0.00 0.00 0.00 51 1016.2
20260906001547 70 308 0.0 6.0 0.00 0.00 0.00 53 1016.2
20260906000046 70 0 0.0 1.0 0.00 0.00 0.00 55 1016.2
20260905234544 72 0 0.0 3.0 0.00 0.00 0.00 50 1016.3
20260905233050 72 38 0.0 4.0 0.00 0.00 0.00 51 1016.3
20260905231546 71 81 0.0 3.0 0.00 0.00 0.00 55 1016.3
20260905230052 69 146 0.0 4.0 0.00 0.00 0.00 62 1016.4
20260905224602 69 46 2.0 6.0 0.00 0.00 0.00 63 1016.5
20260905223046 70 0 0.0 3.0 0.00 0.00 0.00 58 1016.7
20260905221556 69 0 1.0 3.0 0.00 0.00 0.00 59 1016.8
20260905220046 67 244 0.0 4.0 0.00 0.00 0.00 65 1017.2
20260905214547 64 0 1.0 3.0 0.00 0.00 0.00 73 1017.3
20260905213050 64 134 1.0 4.0 0.00 0.00 0.00 74 1017.4
20260905211548 64 0 0.0 4.0 0.00 0.00 0.00 74 1017.4
20260905210043 64 121 1.0 3.0 0.00 0.00 0.00 72 1017.5
20260905204554 63 0 0.0 2.0 0.00 0.00 0.00 74 1017.6
20260905203110 63 0 0.0 4.0 0.00 0.00 0.00 72 1017.7
20260905201546 62 132 0.0 1.0 0.00 0.00 0.00 73 1017.8
20260905200052 62 0 0.0 3.0 0.00 0.00 0.00 75 1017.7
20260905194546 62 0 0.0 2.0 0.00 0.00 0.00 73 1017.8
20260905193043 63 0 0.0 3.0 0.00 0.00 0.00 73 1017.8
20260905191543 63 101 1.0 6.0 0.00 0.00 0.00 73 1017.9
20260905190044 63 0 1.0 4.0 0.00 0.00 0.00 73 1018.0
20260905184550 61 0 0.0 2.0 0.00 0.00 0.00 76 1018.1